Showing default

IRIDIUM 166, 43570

Orbit data source: Space-Track

IRIDIUM 166, 43570 is a payload satellite owned by Iridium (US) in LEO that was launched on Wed, 25 Jul 2018 UTC via an FALCON 9 launch vehicle from the Air Force Western Test Range (AFWTR). Payload-class satellites include a variety of spacecraft equipped with specific instruments for various scientific and technological missions. These include communications satellites like Starlink; space stations such as the ISS; scientific satellites like the Hubble; Earth observation satellites from companies like Planet Labs, Umbra, and HawkEye 360; GPS; miniature CubeSats for education and research; and military/defense satellites.

Loading next visibility...
Identifier
43570, 2018-061B
Orbit
LEO
Country
Flag of USUS
Related business
Manufacturer
NGIS SSG Gilbert
Mission
Operational Commercial Communications
Bus & Motor
ELITEBUS, Unknown motor
Mass
860 kg wet, 700 kg dry
Launch date (UTC)
2018-07-25 (7 years ago)
Launch vehicle
FALCON 9
Launch site
Air Force Western Test Range (AFWTR)
Object type
Payload
Rocket body
Debris
Shape & HBR
Trap Box + 2 Pan, 4.8 m
Radar Cross Section
10.154 m², Large (>1 m²)

Expand to show TLE details & history
Last TLE update: 8 hours ago

TLE from 8 hours ago
0 IRIDIUM 166
1 43570U 18061B   25299.08211086  .00000187  00000-0  59780-4 0  9997
2 43570  86.3991 154.6137 0001844  86.2912 273.8494 14.34218450379849
Epoch: 2025-10-26T01:58Z
TLE epoch observation values (Epoch: 2025-10-26T01:58:14.378Z)
Latitude
-0.00008°
Longitude
90.35037°
Altitude
780.627 km
Speed
7.464 km/s
True Right ascension
10h 18m 27s
True Declination
0° 00' 00"
Sunlit
Object was in daylight at epoch
Visualization orbit readout
Latitude
Unknown
Longitude
Unknown
Altitude
Unknown
Speed
Unknown
Apparent Right ascension
Unknown
Apparent Declination
Unknown
Sunlit
N/A
Visualization observer readout
Local Sidereal Time
05:29:42
Azimuth
Unknown
Elevation
Unknown
Doppler factor
Unknown
Orbital elements
Apogee altitude
775.948 km
Perigee altitude
773.31 km
Semi-major axis
7,152.766 km
Eccentricity
0.00018
Inclination
86.3991°
RAAN
154.6137°
Arg. of periapsis
86.2912°
True anomaly
273.82832°
Mean anomaly
273.8494°
Eccentric anomaly
273.83886°
Mean motion
3.58783 °/min
Orbital period
100.34 mins
BSTAR
0.00005978
Loading maneuver chart data...
Computing Atmospheric mass density...
Loading historical data...
Loading historical data...
Loading historical data...
Loading historical data...
Loading historical data...
Loading historical data...
Loading historical data...

Documentation

Showing up to 5 results
|